Earn Your Wings!


Squadron Photo Video

Since its foundation in 1951, Kitty Hawk Squadron 3 has trained hundreds of young men
and women to fly.  If you are between the ages of 14 and 21, you are eligible to participate
in this exciting program.  Ground and Flight Instruction are provided at no charge by our volunteer
Certified Flight Instructors.  Flight Training is performed in a Cessna 172 provided by the
North Hollywood Optimist Club, the primary sponsor of Squadron 3 since 1951.

Meetings are held Mondays at 7:00 PM
Signature Flight Support - 7240 Hayvenhurst Pl, Van Nuys, CA 91406



Whiteman Airport METAR: KWHP 281955Z 18007KT 10SM SKC 19/M14 A3030 KWHP 2022-01-28T19:55:00Z 34.25

Van Nuys Airport METAR: KVNY 281951Z 00000KT 10SM CLR 21/M08 A3026

this page last updated August 20, 2019